Погода Нарьян-Мар

Погода Нарьян-Мар : погода сейчас, прогноз погоды и архив. Всё, что Вы хотите узнать о погоде Нарьян-Мар!

Хотите узнать прогноз погоды Нарьян-Мар? Тогда Вам сюда: Погода Нарьян-Мар

Поиск расширенной информации на нашем сайте:

Другие новости

Новости СМИ2

Главная страница сайта

Новости сайта

03.07.2017

Напоминаем, что на нашем специализированном сайте Метеоцентр.Азия вы можете получить высокодетализированные автоматические прогнозы погоды по пунктам России, СНГ и мира в авиационном формате (включающие направление и скорость ветра, видимость, явления погоды, количество и форму облачности, нижнюю и верхнюю границу облачности).


Погода Нарьян-Мар - сегодня

Время (UTC), дата Ветер
(°,м/с) 
Видим.   Явления Облачность Т
(°С)
Тd
(°С)
f(%) Тe
(°С)
Pmin
(гПа)
dP
(гПа)
Po
(мм)
O2
(г/м3)
Тmin Tmax R s Состояние
почвы
18 19.02.18 090 (В) 20000 м    3/0 верхняя 
[Ci fib]
-30.1 -33.7 71 -31  1028.4  -0.3  770  351           
21 19.02.18 210 (ЮЗ) 20000 м    10/8 540 м средняя 
[Sc|Ac trans]
-26.7 -29.9 74 -27  1027.9  -0.4  770  346           
00 20.02.18 тихо ()   20000 м    3/3 600 м 
[Sc]
-25.9 -29.1 74 -26  1027.6  -0.4  770  344           
03 20.02.18 170 (Ю) 20000 м    3/0 средняя 
[Ac trans]
-28.6 -32 72 -29  1026.5  -1.1  769  348  -30.3      56  равномерный
сухой снег
100% 
06 20.02.18 200 (Ю) 20000 м    8/0 средняя 
[Ac trans]
-23.5 -26.4 77 -27  1026  -0.4  768  341           
09 20.02.18 190 (Ю) 20000 м    8/0 средняя, верхняя 
[Ac trans|Ci fib]
-21.6 -24.3 79 -25  1025.5  -0.5  768  338           
12 20.02.18 200 (Ю) 20000 м    6/0 средняя, верхняя 
[Ac trans|Ci fib]
-21.2 -24 78 -24  1024.7  -0.7  767  337           
18 20.02.18 170 (Ю) 20000 м    9/9 930 м 
[Sc]
-20.3 -23.1 78 -23  1023.9  0.1  767  335           
21 20.02.18 150 (ЮВ) 20000 м    6/6 900 м 
[Sc]
-22.9 -25.7 78 -23  1024  -0.1  767  339           
00 21.02.18 090 (В) 20000 м    8/0 средняя 
[Ac trans]
-27.6 -30.9 73 -28  1024.2  0.2  767  346           
03 21.02.18 060 (СВ) 20000 м    3/0 средняя 
[Ac trans]
-28.8 -32.2 72 -29  1024.2  -0.1  767  347  -28.8      56  равномерный
сухой снег
100% 
06 21.02.18 060 (СВ) 20000 м    3/0 средняя 
[Ac trans]
-28.2 -31.7 72 -32  1024.2  0.1  767  347  -30         
09 21.02.18 050 (СВ) 20000 м    ясно 
-25.2 -28.6 73 -28  1024.2  767  342           
12 21.02.18 070 (В) 20000 м    ясно 
-25 -28.4 73 -26  1024.2  767  342           
18 21.02.18 050 (СВ) 20000 м    3/0 верхняя 
[Ci fib]
-29 -32.4 72 -34  1024.1  767  348           
21 21.02.18 060 (СВ) 20000 м    ясно 
-29.8 -33.3 72 -33  1024.6  0.4  767  349           
00 22.02.18 040 (СВ) 20000 м    ясно 
-27.9 -31.3 73 -31  1024.6  0.1  767  346           
03 22.02.18 030 (СВ) 20000 м    3/0 верхняя 
[Ci fib]
-27.6 -30.9 73 -31  1024.6  767  346  -29.9      56  равномерный
сухой снег
100% 
06 22.02.18 040 (СВ) 20000 м    4/0 средняя, верхняя 
[Ac trans|Ci fib]
-25.2 -28.4 75 -30  1025.2  0.5  768  343           
09 22.02.18 050 (СВ) 20000 м    3/0 верхняя 
[Ci fib]
-21.8 -25 75 -26  1026  0.8  768  338           
12 22.02.18 050 (СВ) 20000 м    8/0 средняя, верхняя 
[Ac trans|Ci fib]
-21.8 -25.4 73 -26  1026.9  0.9  769  339           
18 22.02.18 040 (СВ) 20000 м    1/0 средняя 
[Ac trans]
-24.4 -27.6 75 -29  1028.6  0.9  770  343           
21 22.02.18 050 (СВ) 20000 м    3/0 средняя, верхняя 
[Ac trans|Ci fib]
-23 -26 76 -29  1029.1  0.5  771  341           
00 23.02.18 040 (СВ) 20000 м    ясно 
-24.2 -27.1 77 -27  1029.2  0.1  771  343           
03 23.02.18 060 (СВ) 20000 м    10/10 210 м 
[St]
-21.4 -23.8 81 -24  1029.4  0.2  771  339  -24.5      56  равномерный
сухой снег
100% 
Время (UTC), дата Ветер
(°,м/с) 
Видим.   Явления Облачность Т
(°С)
Тd
(°С)
f(%) Тe
(°С)
Pmin
(гПа)
dP
(гПа)
Po
(мм)
O2
(г/м3)
Тmin Tmax R s Состояние
почвы

Для получения пояснительной информации подведите курсор к названию столбца.

ПОГОДА Нарьян-Мар - архив

Всё, что Вы хотите узнать о погоде Нарьян-Мар - удобно и подробно!

Выберите нужную дату (начиная с 1 января 2015* года) и нажмите кнопку "Найти".
Будут отображены архивные сводки погоды по пункту Нарьян-Мар, начиная с указанной даты.


Отображать данные в формате CSV (для использования в таблицах Excel)


Внимание! Наш архив погоды предназначен исключительно для личного некоммерческого использования в познавательных целях. Если Вам необходимы официальные справки о состоянии погоды (для производственных, юридических, коммерческих и т.п. целей), обращайтесь в органы Росгидромета.

*Примечание: данная дата относится к архиву по метеостанциям СССР (Россия, СНГ, Балтия).
Архив по метеостанциям Зарубежной Европы и Азии (кроме Китая) хранится 10 дней, по другим регионам земного шара (Китай, Африка, Америка, Австралия, Океания) - 1 день.

Нарьян-Мар - район местоположения метеостанции


Название, широта, долгота, высота метеостанции:
Нарьян-Мар 67.6°ш. 53°д. 12 м над ур. моря [Российская Федерация]

Дополнительная информация

В oтличие oт бoльшинства пoгoдных сайтoв мы публикуем пoдрoбную метеoинфoрмацию в детальнoм прoфессиoнальнoм фoрмате.

Характеристики температуры и влажнoсти вoздуха измеряются на высoте 2 м в тени вдали oт зданий и деревьев.
Скoрoсть ветра измеряется на высoте 10 м (на урoвне рoста челoвека скoрoсть ветра ниже в 1.5-2 раза). Если метеoстанция нахoдится в гoрoде или в лесу, тo скoрoсть ветра занижена на 2-4 м/с пo сравнению с oткрытым местoм. Скoрoсть ветра над акватoриями крупных рек и oзёр, а также на вершинах хoлмoв на 2-5 м/с выше, чем в oбычных услoвиях.
Атмoсфернoе давление в разных тoчках местнoсти мoжет значительнo oтличаться oт давления на метеoстанции, в зависимoсти oт услoвий рельефа (при пoдъёме на 10 м давление пoнижается примернo на 1 мм рт.ст.).